Weather History for San Angelo, TX

Change the Weather History Date:

Thursday, November 20, 2014

  Actual Average Record
Temperature  
Mean Temperature 60 °F 53 °F  
Max Temperature 75 °F 67 °F 87 °F (1996)
Min Temperature 44 °F 40 °F 22 °F (1937)
Degree Days  
Heating Degree Days 5 12  
Month to date heating degree days 272 171  
Since 1 July heating degree days 293 262  
Cooling Degree Days 0 0  
Month to date cooling degree days 10 15  
Year to date cooling degree days 2872 2499  
Growing Degree Days 12 (Base 50)    
Moisture  
Dew Point 44 °F    
Average Humidity 62    
Maximum Humidity 93    
Minimum Humidity 31    
Precipitation  
Precipitation 0.00 in 0.03 in 0.30 in (1962)
Month to date precipitation 3.00 0.87  
Year to date precipitation 16.31 20.13  
Snow  
Snow 0.00 in 0.10 in 0.00 in (2002)
Month to date snowfall T 0.2  
Since 1 July snowfall T 0.2  
Snow Depth 0.00 in    
Sea Level Pressure  
Sea Level Pressure 30.02 in    
Wind  
Wind Speed 12 mph (SSW)    
Max Wind Speed 23 mph    
Max Gust Speed 30 mph    
Visibility 10 miles    
Events      
T = Trace of Precipitation, MM = Missing Value Source: NWS Daily Summary

Daily Weather History Graph

Daily Weather History Graph

Search for Another Location

Airport:

Trip Planner

Search our weather history database for the weather conditions in past years. The results will help you decide how hot, cold, wet, or windy it might be!

Date:

Astronomy

Nov. 20, 2014 Rise Set
Actual Time 7:13 AM CST 5:41 PM CST
Civil Twilight 6:47 AM CST 6:07 PM CST
Nautical Twilight 6:18 AM CST 6:36 PM CST
Astronomical Twilight 5:49 AM CST 7:05 PM CST
Moon 5:18 AM CST (11/20) 4:39 PM CST (11/20)
Length of Visible Light 11h 19m
Length of Day
10h 27m
Waning Crescent, 4% of the Moon is Illuminated
Nov 20
Waning Crescent
Nov 22
New
Nov 29
First Quarter
Dec 6
Full
Dec 14
Last Quarter

Hourly Weather History & Observations

Time (CST) Temp. Windchill Dew Point Humidity Pressure Visibility Wind Dir Wind Speed Gust Speed Precip Events Conditions
12:51 AM 48.0 °F - 37.9 °F 68% 30.10 in 10.0 mi SSW 4.6 mph - N/A   Clear
1:51 AM 50.0 °F - 41.0 °F 71% 30.08 in 10.0 mi SSW 11.5 mph - N/A   Clear
2:51 AM 46.0 °F 42.5 °F 39.9 °F 79% 30.07 in 10.0 mi SSW 6.9 mph - N/A   Clear
3:51 AM 46.0 °F 41.4 °F 41.0 °F 83% 30.06 in 10.0 mi South 9.2 mph - N/A   Clear
4:51 AM 45.0 °F 39.7 °F 41.0 °F 86% 30.04 in 10.0 mi South 10.4 mph - N/A   Clear
5:15 AM 45.0 °F 39.3 °F 41.0 °F 86% 30.06 in 10.0 mi South 11.5 mph - N/A   Scattered Clouds
5:24 AM 46.0 °F 41.0 °F 42.1 °F 86% 30.06 in 10.0 mi South 10.4 mph - N/A   Mostly Cloudy
5:51 AM 48.9 °F - 46.0 °F 90% 30.06 in 10.0 mi SSW 6.9 mph - N/A   Overcast
6:28 AM 51.1 °F - 46.9 °F 86% 30.07 in 10.0 mi SSW 13.8 mph - N/A   Overcast
6:51 AM 51.1 °F - 46.9 °F 86% 30.06 in 10.0 mi SSW 13.8 mph - N/A   Overcast
7:51 AM 52.0 °F - 46.9 °F 83% 30.07 in 10.0 mi SSW 15.0 mph 23.0 mph N/A   Scattered Clouds
8:51 AM 55.9 °F - 48.0 °F 75% 30.07 in 10.0 mi SSW 11.5 mph - N/A   Clear
9:51 AM 59.0 °F - 48.0 °F 67% 30.08 in 10.0 mi SSW 15.0 mph - N/A   Clear
10:51 AM 64.9 °F - 46.0 °F 50% 30.06 in 10.0 mi South 18.4 mph - N/A   Clear
11:51 AM 69.1 °F - 45.0 °F 42% 30.03 in 10.0 mi SSW 19.6 mph 26.5 mph N/A   Clear
12:51 PM 71.1 °F - 44.1 °F 38% 29.98 in 10.0 mi South 19.6 mph 27.6 mph N/A   Clear
1:51 PM 72.0 °F - 43.0 °F 35% 29.94 in 10.0 mi South 18.4 mph 26.5 mph N/A   Clear
2:51 PM 73.9 °F - 41.0 °F 30% 29.93 in 10.0 mi SSW 17.3 mph - N/A   Clear
3:51 PM 73.0 °F - 41.0 °F 31% 29.92 in 10.0 mi SSW 16.1 mph - N/A   Clear
4:51 PM 71.1 °F - 41.0 °F 34% 29.93 in 10.0 mi SSW 13.8 mph - N/A   Clear
5:51 PM 63.0 °F - 42.1 °F 46% 29.95 in 10.0 mi SSW 8.1 mph - N/A   Clear
6:51 PM 60.1 °F - 43.0 °F 53% 29.95 in 10.0 mi SSW 5.8 mph - N/A   Clear
7:51 PM 55.9 °F - 44.1 °F 64% 29.97 in 10.0 mi SSW 5.8 mph - N/A   Clear
8:51 PM 53.1 °F - 44.1 °F 71% 29.99 in 10.0 mi SSW 4.6 mph - N/A   Clear
9:51 PM 52.0 °F - 45.0 °F 77% 30.00 in 10.0 mi SSW 3.5 mph - N/A   Clear
10:51 PM 53.1 °F - 46.9 °F 80% 30.00 in 10.0 mi South 10.4 mph - N/A   Clear
11:51 PM 54.0 °F - 50.0 °F 86% 29.99 in 10.0 mi South 11.5 mph - N/A   Clear